Temperature
-2 -3 -3 -4 -5 -6 -6 -7 -7 -7 -7 -7 -8 -8 -7 -7 -7 -7 -7 -7 -6 -5 -4 -2 -1 -0 1 2 3 4 5 7 8 10 11 12 13 14 15 15 15 16 16
-3 -4 -4 -5 -6 -7 -7 -7 -8 -8 -8 -8 -8 -8 -8 -8 -8 -8 -8 -8 -7 -6 -5 -4 -2 -1 -0 1 2 3 4 5 7 8 10 11 12 13 14 15 15 15 16
-4 -5 -5 -6 -7 -7 -8 -8 -8 -9 -9 -9 -9 -9 -9 -9 -9 -9 -9 -9 -8 -7 -6 -5 -3 -2 -1 0 1 2 3 4 5 7 8 10 11 12 13 14 15 15 15
-4 -5 -6 -7 -7 -8 -8 -9 -9 -9 -9 -10 -10 -10 -10 -10 -10 -10 -10 -9 -9 -8 -7 -5 -4 -3 -1 -0 1 2 2 3 4 6 7 9 11 12 13 14 14 15 15
-5 -6 -6 -7 -8 -8 -8 -9 -9 -10 -10 -10 -10 -10 -10 -10 -11 -10 -10 -10 -9 -8 -7 -6 -4 -3 -2 -1 -0 1 1 2 3 4 6 8 10 11 12 13 14 15 15
-5 -6 -7 -8 -8 -9 -9 -9 -10 -10 -10 -10 -11 -11 -11 -11 -11 -11 -11 -10 -9 -8 -7 -6 -5 -4 -3 -2 -1 -0 0 1 2 3 5 7 9 10 11 12 13 14 15
-6 -7 -8 -8 -8 -9 -9 -9 -10 -10 -10 -10 -11 -11 -11 -11 -11 -11 -11 -10 -10 -9 -7 -6 -5 -4 -4 -3 -2 -1 -0 0 1 2 4 6 8 9 11 12 13 14 14
-6 -7 -8 -8 -9 -9 -9 -9 -10 -10 -10 -10 -11 -11 -11 -11 -10 -11 -11 -11 -10 -10 -8 -7 -6 -5 -5 -4 -3 -3 -2 -1 0 2 3 4 6 8 10 11 12 13 14
-7 -8 -8 -9 -9 -10 -10 -10 -10 -10 -10 -10 -10 -11 -11 -11 -11 -11 -11 -11 -10 -10 -9 -8 -7 -6 -5 -4 -4 -3 -3 -1 -0 1 2 3 5 7 9 10 12 13 14
-7 -8 -9 -9 -10 -10 -10 -10 -10 -10 -10 -10 -10 -10 -11 -11 -11 -11 -10 -10 -10 -10 -9 -8 -7 -7 -6 -5 -4 -4 -3 -2 -1 0 1 3 4 6 8 10 11 12 13
-7 -8 -9 -9 -10 -10 -10 -10 -10 -10 -10 -10 -10 -11 -11 -11 -11 -11 -11 -10 -10 -9 -9 -8 -7 -6 -6 -5 -4 -4 -3 -2 -1 -0 1 2 3 5 7 9 10 11 13
-7 -8 -9 -10 -10 -10 -10 -10 -10 -10 -10 -10 -10 -11 -11 -11 -11 -11 -11 -11 -10 -9 -9 -8 -7 -7 -6 -5 -4 -4 -3 -2 -2 -1 -0 1 3 4 6 8 9 11 12
-7 -8 -9 -10 -10 -11 -11 -11 -11 -10 -10 -10 -10 -10 -11 -11 -11 -11 -10 -10 -10 -10 -9 -8 -8 -7 -6 -5 -5 -4 -4 -3 -2 -2 -1 0 2 4 6 7 9 10 11
-8 -9 -9 -10 -10 -11 -11 -11 -11 -10 -10 -10 -10 -11 -11 -11 -11 -11 -11 -10 -10 -10 -9 -9 -8 -7 -7 -6 -6 -5 -4 -4 -3 -2 -1 0 1 3 5 7 9 10 11
-8 -9 -9 -10 -11 -11 -11 -11 -11 -11 -11 -10 -11 -11 -11 -11 -11 -11 -11 -10 -10 -10 -9 -9 -9 -8 -7 -7 -6 -5 -5 -4 -3 -2 -1 -0 1 3 4 6 8 10 11
-8 -8 -9 -10 -11 -11 -11 -11 -11 -11 -11 -11 -11 -11 -11 -12 -12 -11 -11 -11 -10 -10 -10 -9 -9 -8 -8 -8 -7 -6 -5 -4 -3 -3 -2 -0 1 2 4 6 8 9 10
-7 -8 -9 -10 -10 -11 -11 -11 -11 -11 -11 -11 -11 -11 -12 -12 -12 -11 -11 -11 -10 -10 -10 -10 -9 -9 -8 -8 -7 -6 -5 -4 -3 -2 -1 -0 1 2 4 5 7 9 10
-7 -8 -9 -10 -10 -11 -11 -11 -11 -11 -11 -11 -11 -11 -12 -12 -12 -11 -11 -11 -11 -11 -11 -11 -10 -9 -9 -8 -8 -7 -6 -5 -4 -2 -1 -0 1 2 3 5 6 8 10
-7 -8 -9 -9 -10 -10 -11 -11 -11 -11 -11 -11 -11 -11 -11 -12 -12 -11 -11 -11 -11 -11 -11 -11 -11 -10 -9 -9 -8 -7 -6 -5 -4 -2 -1 -0 1 2 3 5 6 8 9
-7 -8 -8 -9 -9 -10 -10 -10 -10 -10 -10 -10 -11 -11 -11 -12 -12 -11 -11 -11 -11 -11 -11 -11 -11 -11 -10 -9 -9 -8 -6 -4 -4 -2 -1 -0 1 2 4 5 6 7 9
-7 -7 -8 -9 -9 -9 -10 -10 -10 -9 -10 -10 -10 -11 -11 -11 -11 -11 -11 -11 -11 -11 -11 -11 -11 -11 -11 -10 -10 -9 -8 -6 -3 -3 -1 -0 1 2 4 5 6 7 8
-6 -7 -8 -9 -9 -9 -10 -9 -9 -9 -9 -10 -10 -10 -11 -11 -12 -11 -11 -11 -11 -12 -12 -11 -12 -12 -11 -11 -11 -10 -10 -8 -5 -3 -2 -0 1 2 3 5 6 7 8
-6 -7 -8 -9 -9 -9 -10 -9 -9 -9 -9 -9 -10 -10 -11 -11 -11 -11 -11 -12 -12 -12 -12 -12 -12 -12 -12 -11 -11 -10 -10 -9 -7 -3 -3 -0 1 2 3 5 6 7 8
-6 -7 -7 -8 -9 -9 -9 -9 -8 -8 -9 -9 -10 -10 -11 -11 -11 -11 -11 -12 -12 -12 -12 -12 -12 -12 -12 -11 -11 -11 -10 -9 -5 -4 -3 -2 1 2 4 5 6 7 8
-5 -6 -7 -8 -9 -9 -9 -9 -8 -8 -9 -9 -10 -11 -11 -11 -11 -11 -11 -12 -12 -12 -12 -12 -12 -12 -11 -11 -11 -11 -10 -9 -7 -4 -3 -2 0 2 4 5 6 7 8
-5 -6 -6 -7 -9 -9 -9 -9 -8 -9 -9 -10 -10 -11 -11 -11 -11 -11 -12 -12 -12 -12 -12 -12 -11 -11 -11 -11 -11 -11 -11 -10 -9 -5 -3 -2 0 2 4 5 6 6 7
Wind_Speed
12 15 16 17 18 18 18 19 19 20 20 21 22 23 23 26 27 27 26 32 35 36 36 36 35 34 32 31 29 28 27 26 25 24 24 24 22 21 23 27 30 32 31
13 14 14 16 16 17 18 19 19 18 17 18 18 21 23 26 26 27 28 31 34 36 36 36 35 34 33 31 30 28 27 26 25 25 24 24 23 21 21 24 29 32 33
13 14 13 13 16 18 19 18 18 17 15 15 13 19 21 23 25 27 29 29 30 33 36 36 35 34 32 31 29 28 27 25 24 24 24 23 23 22 21 22 28 32 34
13 13 12 13 17 18 17 14 11 6 8 9 10 10 16 19 22 26 28 29 29 29 31 35 35 33 31 29 28 26 25 25 24 23 23 23 23 23 22 21 25 30 34
12 13 13 14 17 16 14 14 8 8 10 10 11 11 8 10 16 24 25 29 29 29 28 31 33 31 29 27 25 25 25 24 24 23 22 22 22 23 22 21 22 28 33
12 14 14 14 16 12 8 8 10 9 9 10 15 15 12 12 13 14 18 22 24 27 26 25 22 20 22 22 22 23 23 23 23 23 23 23 22 22 22 22 21 25 31
13 14 13 13 13 8 7 9 10 11 10 8 11 14 13 12 13 13 12 14 19 23 22 19 15 13 13 18 19 20 21 22 23 23 23 23 23 23 22 22 22 23 29
13 14 12 11 12 8 9 9 9 9 12 9 10 15 14 14 10 13 12 15 16 15 16 19 16 14 12 12 15 20 21 21 22 22 22 23 23 24 23 23 23 23 26
14 13 14 13 12 9 8 9 10 11 12 12 8 8 10 13 17 12 13 14 13 14 14 13 14 14 15 13 12 17 21 22 22 21 22 22 23 23 24 23 24 23 24
13 14 14 13 12 11 8 9 9 9 11 13 11 8 10 12 13 15 12 10 14 14 14 14 13 14 16 14 15 19 21 21 21 21 21 21 21 22 24 24 24 24 24
12 14 15 13 12 11 10 9 9 10 9 10 11 12 14 13 12 11 16 16 14 12 12 13 12 11 15 16 14 18 21 20 19 19 19 20 20 20 21 23 24 24 24
8 12 14 13 14 13 10 10 9 11 10 10 10 10 12 12 13 11 12 15 15 14 13 12 12 11 12 14 16 19 19 18 18 19 19 20 20 20 20 20 22 23 24
5 6 12 12 13 13 14 13 8 10 10 10 9 10 10 11 12 12 13 14 15 14 11 11 10 9 11 11 12 17 16 17 18 19 20 20 20 20 20 20 21 21 22
6 10 12 13 15 15 15 12 7 9 9 9 12 11 10 10 11 11 11 13 14 12 10 10 10 9 9 11 15 18 13 18 20 21 20 20 20 20 20 20 20 19 19
9 11 13 12 13 13 12 10 7 10 9 9 10 11 9 10 10 10 10 11 10 13 13 9 8 10 10 11 16 14 11 18 21 22 22 21 21 21 21 20 19 18 17
9 9 9 10 10 10 10 8 8 9 10 10 9 10 10 9 10 10 10 10 9 10 12 9 11 11 13 13 18 15 14 22 22 23 23 23 23 22 21 19 18 17 16
8 7 8 8 8 8 8 8 9 10 10 11 11 10 11 11 10 10 10 10 9 9 12 12 10 11 13 12 12 12 14 12 13 21 23 23 22 22 20 19 17 16 15
8 9 9 8 9 9 8 9 10 11 11 12 12 11 11 11 12 11 10 11 9 9 10 15 13 11 12 12 11 12 12 12 10 18 22 22 22 21 20 19 17 15 13
7 8 8 9 9 9 10 10 11 12 12 13 12 12 11 11 12 11 12 10 9 10 9 11 13 11 10 10 11 12 12 10 12 15 18 20 21 22 21 19 17 15 13
8 8 8 9 9 10 11 12 12 13 13 13 12 11 10 11 12 11 11 10 10 9 9 10 11 11 10 9 9 10 12 10 11 12 13 14 16 19 21 20 19 16 13
10 8 9 9 9 10 11 13 12 12 11 11 11 11 10 15 17 15 13 11 10 8 9 10 11 11 10 10 10 10 12 12 12 7 7 8 8 9 10 16 16 16 14
9 9 8 9 11 12 21 26 19 10 10 10 11 10 10 12 16 20 23 22 18 12 11 9 10 11 12 11 10 11 11 11 7 6 8 10 8 8 8 9 13 15 15
9 9 8 9 11 15 24 25 24 14 9 10 10 8 9 11 14 10 15 18 16 20 19 13 10 11 12 11 12 12 11 11 12 10 10 8 7 9 8 10 15 15 15
8 8 8 9 11 14 24 25 24 12 9 9 8 8 9 9 11 14 9 8 8 10 14 11 9 11 11 11 11 11 12 13 13 12 9 6 6 7 7 7 13 16 15
8 7 8 9 10 13 22 25 23 8 8 8 7 8 9 8 17 21 10 9 10 10 14 18 19 17 19 18 14 8 8 9 8 6 4 5 5 5 5 6 9 15 15
7 7 8 8 9 10 18 23 23 7 7 7 7 7 13 15 19 20 9 8 11 10 9 12 13 15 12 13 15 8 7 8 7 5 4 5 4 3 3 4 6 8 9
Wind_Direction
343 339 332 329 328 329 331 329 323 321 321 319 317 318 317 314 311 307 305 302 300 297 294 290 287 284 281 278 277 276 275 274 274 275 278 278 281 273 254 234 216 206 202
342 334 327 324 323 327 325 320 317 316 314 314 314 315 312 309 306 306 304 302 299 295 292 288 285 282 279 275 273 272 271 270 270 270 272 275 277 279 264 244 224 210 203
338 332 321 318 320 322 319 316 311 310 312 314 311 309 308 306 305 304 302 299 296 293 289 286 282 279 275 271 268 267 267 267 268 269 269 272 273 276 272 253 232 215 205
331 327 318 314 316 319 315 310 305 310 308 305 304 304 304 304 304 304 301 298 294 289 285 282 280 277 274 269 266 265 265 266 267 268 268 269 271 271 271 262 241 222 209
325 324 315 309 315 315 309 311 318 308 306 306 305 302 301 303 301 301 299 296 293 287 280 276 273 272 271 268 266 266 265 265 266 267 269 269 271 268 267 265 249 229 214
321 319 309 310 314 309 306 306 306 303 302 304 308 307 300 296 298 296 297 300 301 295 285 275 271 273 273 271 268 265 264 264 265 265 267 269 271 270 266 263 256 237 220
315 310 304 306 308 303 300 300 304 306 305 302 307 307 301 292 291 296 299 306 304 303 301 297 288 280 278 278 280 277 271 266 264 264 264 267 269 269 268 263 259 244 226
306 305 304 302 301 299 299 300 304 304 308 310 307 308 308 308 301 305 301 299 302 308 310 306 302 293 285 278 277 278 277 272 268 266 265 266 267 266 266 264 259 249 233
302 302 301 300 299 299 297 300 301 305 311 310 297 298 302 305 311 303 299 298 302 304 302 301 297 295 289 279 273 276 274 271 268 267 266 265 264 264 262 263 259 252 238
305 306 302 301 301 298 293 300 311 304 306 310 311 296 286 289 298 306 308 299 302 306 310 310 309 303 295 287 278 274 270 267 266 266 267 267 265 263 259 258 257 251 242
304 304 302 305 302 298 295 298 302 302 301 301 308 310 307 300 289 290 302 309 309 306 304 303 301 295 290 281 272 269 268 266 266 269 272 273 273 270 263 257 257 252 244
296 299 305 307 302 297 296 298 300 302 301 302 306 307 308 308 306 298 293 299 303 304 303 300 296 293 287 281 274 275 272 271 271 273 274 275 277 278 275 268 264 256 248
292 290 304 300 297 296 300 303 304 301 301 305 307 308 308 305 305 304 297 295 296 298 299 298 296 298 302 304 297 289 284 280 276 274 274 274 276 278 277 275 271 263 254
281 290 297 297 296 300 305 305 303 301 304 305 310 308 309 309 307 306 306 304 304 301 302 302 310 305 315 314 307 305 300 290 280 275 273 274 275 277 275 275 271 267 262
288 296 298 294 296 300 301 302 297 300 302 302 305 305 309 309 310 308 307 308 307 310 311 308 314 312 313 310 307 304 298 293 285 279 274 273 273 274 273 273 270 265 260
288 291 292 293 295 298 300 299 298 297 301 301 302 303 308 311 311 311 311 311 307 306 305 308 310 308 311 311 308 311 306 296 287 282 275 270 268 269 268 269 268 263 254
288 289 292 293 295 294 294 295 296 297 297 299 300 302 303 307 308 311 310 309 310 311 309 310 309 308 306 306 305 306 300 291 283 279 275 270 264 264 263 264 264 261 251
288 290 292 293 296 298 292 290 293 296 291 291 292 294 297 306 304 306 306 306 306 307 309 312 312 312 308 309 310 310 307 300 291 283 276 270 264 261 258 259 259 256 250
285 288 290 293 293 292 289 284 281 281 282 281 282 285 289 296 299 301 304 304 305 313 309 308 310 312 311 315 319 315 313 306 299 289 280 271 263 258 254 253 253 250 244
286 286 287 288 292 292 287 281 276 274 275 274 275 276 281 286 289 295 305 306 311 313 311 310 309 311 313 318 324 324 320 317 308 298 285 275 267 258 249 245 244 241 234
287 282 284 289 292 293 287 282 278 279 275 276 274 272 278 295 307 314 318 318 319 315 314 312 311 312 315 323 324 322 317 317 307 291 305 290 277 258 243 239 236 229 223
279 280 281 286 292 295 301 308 312 300 292 285 282 276 281 292 303 318 319 322 327 323 316 311 311 310 309 310 312 312 314 315 310 322 332 303 285 264 245 227 219 214 212
280 279 280 282 284 291 305 312 318 325 305 297 290 284 292 301 313 298 307 322 323 321 320 314 305 299 299 299 299 300 300 298 288 294 307 289 271 262 247 228 210 205 205
276 279 281 282 285 295 312 317 323 329 305 298 293 284 284 289 299 308 316 317 304 304 309 308 290 289 289 286 281 283 290 294 288 275 252 262 270 261 252 223 207 200 200
280 282 283 286 290 302 315 320 331 324 317 312 307 305 310 299 310 325 338 321 313 306 319 323 321 317 315 313 308 299 294 296 299 290 267 256 272 270 248 216 199 194 194
281 288 292 292 296 301 317 328 337 332 327 329 324 325 330 328 330 339 341 323 315 318 328 325 321 319 313 308 311 302 286 281 283 286 307 322 294 289 243 198 183 186 190
Height
1548 1544 1540 1536 1532 1528 1524 1520 1516 1512 1509 1505 1501 1497 1493 1488 1483 1479 1475 1472 1470 1468 1467 1466 1465 1465 1465 1465 1466 1468 1469 1472 1475 1479 1483 1487 1491 1495 1500 1505 1510 1516 1521
1545 1541 1536 1533 1529 1525 1522 1518 1513 1509 1505 1501 1497 1493 1488 1483 1478 1473 1469 1464 1461 1459 1457 1456 1456 1456 1456 1457 1458 1460 1462 1464 1467 1470 1475 1479 1483 1488 1492 1497 1503 1509 1514
1543 1538 1534 1530 1526 1523 1519 1515 1510 1506 1502 1497 1492 1487 1482 1478 1472 1467 1462 1457 1453 1450 1448 1447 1447 1447 1448 1449 1450 1452 1454 1456 1458 1462 1466 1470 1475 1479 1484 1489 1495 1501 1507
1540 1535 1531 1527 1524 1520 1516 1512 1507 1503 1498 1492 1487 1482 1477 1472 1466 1461 1455 1450 1445 1441 1438 1437 1437 1438 1439 1441 1442 1444 1446 1448 1450 1453 1457 1461 1466 1471 1476 1481 1487 1493 1500
1537 1533 1529 1525 1521 1517 1513 1509 1504 1499 1494 1488 1482 1476 1471 1465 1460 1454 1448 1442 1437 1433 1430 1429 1429 1430 1431 1432 1434 1435 1437 1439 1442 1445 1448 1453 1457 1463 1468 1473 1479 1485 1492
1534 1530 1526 1522 1518 1514 1510 1506 1501 1496 1490 1484 1478 1471 1465 1459 1453 1447 1442 1436 1430 1426 1424 1423 1422 1422 1423 1424 1426 1428 1429 1432 1434 1437 1440 1444 1449 1454 1459 1465 1470 1477 1483
1531 1527 1523 1519 1515 1511 1507 1502 1498 1492 1486 1481 1474 1465 1458 1452 1447 1442 1437 1430 1424 1420 1417 1415 1415 1415 1416 1417 1418 1420 1422 1424 1426 1429 1432 1435 1440 1445 1451 1456 1462 1468 1475
1528 1524 1520 1516 1512 1508 1503 1499 1495 1489 1482 1478 1472 1462 1453 1445 1440 1436 1431 1425 1420 1415 1411 1409 1408 1408 1409 1410 1411 1412 1414 1416 1418 1421 1424 1427 1431 1436 1442 1448 1454 1460 1467
1524 1521 1517 1513 1509 1505 1500 1496 1492 1486 1480 1473 1469 1464 1454 1444 1434 1427 1425 1420 1416 1411 1407 1405 1404 1404 1404 1405 1405 1406 1407 1409 1411 1413 1416 1419 1423 1428 1433 1439 1446 1452 1458
1521 1517 1513 1509 1505 1501 1497 1493 1488 1484 1478 1471 1464 1460 1454 1446 1437 1425 1418 1415 1411 1408 1404 1401 1399 1398 1399 1399 1399 1400 1401 1402 1404 1406 1409 1412 1416 1420 1425 1431 1438 1444 1450
1517 1513 1509 1506 1502 1497 1493 1489 1484 1480 1475 1469 1462 1456 1449 1442 1436 1430 1419 1410 1406 1403 1400 1398 1395 1394 1394 1393 1393 1394 1395 1396 1398 1399 1401 1404 1408 1412 1417 1423 1429 1435 1442
1512 1509 1506 1501 1497 1493 1489 1485 1480 1475 1471 1465 1459 1453 1447 1440 1433 1427 1419 1411 1404 1399 1397 1394 1392 1390 1389 1389 1388 1389 1390 1390 1391 1392 1394 1396 1399 1403 1408 1414 1421 1427 1433
1508 1505 1501 1497 1493 1489 1485 1480 1476 1471 1466 1461 1456 1450 1444 1438 1432 1426 1418 1410 1403 1397 1393 1391 1388 1386 1384 1383 1383 1383 1383 1383 1384 1385 1387 1389 1392 1395 1400 1405 1412 1418 1425
1504 1500 1496 1492 1488 1485 1480 1476 1471 1466 1462 1457 1451 1446 1439 1433 1428 1423 1417 1410 1401 1394 1390 1387 1385 1382 1380 1378 1377 1377 1376 1377 1377 1379 1380 1382 1385 1388 1392 1397 1403 1410 1417
1500 1496 1492 1488 1484 1480 1476 1471 1466 1462 1457 1452 1447 1441 1435 1429 1424 1419 1414 1409 1404 1395 1387 1383 1381 1378 1376 1374 1372 1371 1370 1370 1370 1372 1374 1376 1378 1381 1385 1390 1395 1402 1409
1496 1492 1488 1484 1480 1475 1471 1466 1462 1457 1453 1448 1443 1437 1431 1425 1419 1415 1410 1405 1401 1396 1388 1382 1378 1374 1371 1369 1367 1366 1364 1363 1363 1364 1366 1369 1371 1374 1378 1382 1388 1395 1402
1492 1488 1484 1479 1475 1471 1466 1462 1457 1452 1448 1443 1438 1433 1427 1421 1416 1410 1406 1402 1397 1393 1386 1378 1375 1371 1367 1364 1361 1359 1357 1356 1356 1357 1359 1362 1364 1367 1371 1375 1381 1387 1394
1488 1484 1480 1475 1471 1466 1462 1457 1452 1448 1443 1438 1433 1428 1423 1417 1412 1407 1402 1397 1393 1389 1384 1376 1370 1366 1363 1360 1357 1354 1352 1350 1350 1350 1352 1355 1357 1361 1364 1369 1374 1380 1387
1484 1480 1476 1471 1467 1462 1457 1453 1448 1443 1438 1433 1428 1423 1418 1414 1408 1404 1399 1394 1389 1384 1379 1374 1367 1362 1359 1356 1351 1348 1346 1344 1344 1344 1346 1348 1351 1354 1358 1362 1368 1373 1380
1480 1476 1472 1468 1463 1458 1453 1448 1443 1438 1433 1428 1423 1419 1414 1410 1405 1400 1396 1390 1385 1380 1375 1370 1364 1359 1355 1351 1348 1344 1340 1338 1338 1339 1340 1342 1344 1347 1351 1356 1361 1367 1373
1476 1472 1468 1464 1459 1454 1449 1444 1439 1434 1428 1423 1418 1414 1410 1406 1402 1398 1393 1387 1382 1376 1371 1366 1360 1355 1351 1347 1344 1341 1337 1334 1333 1334 1334 1336 1339 1341 1343 1349 1354 1360 1367
1472 1468 1464 1460 1455 1450 1446 1441 1437 1430 1424 1419 1413 1408 1405 1401 1398 1394 1389 1384 1379 1373 1368 1363 1357 1352 1348 1344 1341 1338 1335 1332 1330 1331 1330 1330 1333 1335 1338 1343 1348 1354 1361
1468 1464 1460 1456 1451 1447 1443 1438 1433 1427 1421 1415 1409 1404 1400 1397 1393 1388 1383 1379 1374 1369 1365 1360 1354 1349 1344 1341 1338 1334 1332 1329 1326 1326 1327 1325 1327 1329 1332 1337 1342 1349 1355
1464 1460 1456 1452 1448 1444 1440 1435 1430 1424 1417 1411 1406 1401 1397 1393 1389 1384 1379 1373 1369 1364 1360 1355 1350 1345 1341 1337 1335 1332 1328 1325 1322 1322 1324 1322 1322 1324 1327 1331 1336 1343 1349
1460 1457 1453 1448 1444 1440 1437 1432 1427 1420 1414 1408 1403 1399 1394 1389 1385 1381 1375 1369 1364 1359 1355 1350 1345 1340 1336 1333 1330 1328 1325 1322 1319 1318 1320 1320 1319 1320 1322 1326 1331 1337 1344
1457 1454 1450 1446 1442 1438 1434 1429 1425 1418 1412 1406 1401 1396 1391 1387 1383 1378 1372 1367 1361 1356 1350 1344 1339 1335 1331 1327 1325 1323 1320 1319 1317 1315 1315 1316 1315 1316 1319 1321 1326 1331 1338